Time,TemperatureF,DewpointF,PressureIn,WindDirection,WindDirectionDegrees,WindSpeedMPH,WindSpeedGustMPH,Humidity,HourlyPrecipIn,Conditions,Clouds,dailyrainin,SoftwareType,DateUTC
2013-03-26 00:01:00,37.6,22.0,29.83,NW,315,0.0,0.0,53,0.00,,,0.00,WUHU216HW,2013-03-26 06:01:00,
2013-03-26 00:12:00,37.4,22.2,29.83,NNW,338,0.0,0.4,54,0.00,,,0.00,WUHU216HW,2013-03-26 06:12:00,
2013-03-26 00:22:00,37.4,22.2,29.82,NNW,338,0.0,0.0,54,0.00,,,0.00,WUHU216HW,2013-03-26 06:22:00,
2013-03-26 00:32:00,37.3,22.1,29.83,NNW,338,0.0,0.0,54,0.00,,,0.00,WUHU216HW,2013-03-26 06:32:00,
2013-03-26 00:42:00,37.1,22.3,29.82,WNW,293,0.0,0.4,55,0.00,,,0.00,WUHU216HW,2013-03-26 06:42:00,
2013-03-26 00:52:00,37.1,22.3,29.82,WNW,293,0.4,0.4,55,0.00,,,0.00,WUHU216HW,2013-03-26 06:52:00,
2013-03-26 01:02:00,36.9,22.2,29.82,West,270,0.0,1.1,55,0.00,,,0.00,WUHU216HW,2013-03-26 07:02:00,
2013-03-26 01:12:00,36.7,22.5,29.82,West,270,0.0,0.0,56,0.00,,,0.00,WUHU216HW,2013-03-26 07:12:00,
2013-03-26 01:22:00,36.5,22.3,29.82,NW,315,0.0,0.0,56,0.00,,,0.00,WUHU216HW,2013-03-26 07:22:00,
2013-03-26 01:32:00,36.4,22.1,29.82,WSW,248,0.0,0.4,56,0.00,,,0.00,WUHU216HW,2013-03-26 07:32:00,
2013-03-26 01:42:00,36.4,22.6,29.82,SW,225,0.4,1.1,57,0.00,,,0.00,WUHU216HW,2013-03-26 07:42:00,
2013-03-26 01:53:00,36.2,22.9,29.81,SSW,203,0.7,1.1,58,0.00,,,0.00,WUHU216HW,2013-03-26 07:53:00,
2013-03-26 02:03:00,36.2,22.9,29.82,WNW,293,0.0,0.9,58,0.00,,,0.00,WUHU216HW,2013-03-26 08:03:00,
2013-03-26 02:13:00,36.2,22.9,29.82,NNW,338,0.0,0.7,58,0.00,,,0.00,WUHU216HW,2013-03-26 08:13:00,
2013-03-26 02:23:00,36.2,23.3,29.81,NE,45,0.7,0.7,59,0.00,,,0.00,WUHU216HW,2013-03-26 08:23:00,
2013-03-26 02:33:00,36.0,23.1,29.81,East,90,0.2,0.7,59,0.00,,,0.00,WUHU216HW,2013-03-26 08:33:00,
2013-03-26 02:43:00,36.0,23.1,29.81,North,0,0.4,0.4,59,0.00,,,0.00,WUHU216HW,2013-03-26 08:43:00,
2013-03-26 02:53:00,35.8,23.0,29.81,North,0,0.0,0.4,59,0.00,,,0.00,WUHU216HW,2013-03-26 08:53:00,
2013-03-26 03:03:00,35.8,23.0,29.81,North,0,0.0,0.0,59,0.00,,,0.00,WUHU216HW,2013-03-26 09:03:00,
2013-03-26 03:13:00,35.8,23.4,29.81,North,0,0.4,0.4,60,0.00,,,0.00,WUHU216HW,2013-03-26 09:13:00,
2013-03-26 03:23:00,35.6,23.2,29.81,South,180,0.4,0.9,60,0.00,,,0.00,WUHU216HW,2013-03-26 09:23:00,
2013-03-26 03:33:00,35.6,23.2,29.81,SSW,203,1.8,2.0,60,0.00,,,0.00,WUHU216HW,2013-03-26 09:33:00,
2013-03-26 03:43:00,35.6,23.2,29.81,SSW,203,0.2,2.5,60,0.00,,,0.00,WUHU216HW,2013-03-26 09:43:00,
2013-03-26 03:53:00,35.6,23.2,29.81,SSE,158,0.9,1.1,60,0.00,,,0.00,WUHU216HW,2013-03-26 09:53:00,
2013-03-26 04:03:00,35.6,23.2,29.81,SSE,158,1.3,1.3,60,0.00,,,0.00,WUHU216HW,2013-03-26 10:03:00,
2013-03-26 04:13:00,35.6,23.2,29.81,SSW,203,0.9,1.1,60,0.00,,,0.00,WUHU216HW,2013-03-26 10:13:00,
2013-03-26 04:23:00,35.6,23.6,29.81,SW,225,0.0,0.4,61,0.00,,,0.00,WUHU216HW,2013-03-26 10:23:00,
2013-03-26 04:33:00,35.6,23.6,29.81,SE,135,0.4,0.9,61,0.00,,,0.00,WUHU216HW,2013-03-26 10:33:00,
2013-03-26 04:43:00,35.6,23.6,29.81,SSW,203,2.2,4.0,61,0.00,,,0.00,WUHU216HW,2013-03-26 10:43:00,
2013-03-26 04:53:00,35.5,23.8,29.81,South,180,2.5,2.9,62,0.00,,,0.00,WUHU216HW,2013-03-26 10:53:00,
2013-03-26 05:03:00,35.5,23.8,29.81,SSW,203,0.0,3.1,62,0.00,,,0.00,WUHU216HW,2013-03-26 11:03:00,
2013-03-26 05:13:00,35.5,23.8,29.81,SW,225,0.2,0.9,62,0.00,,,0.00,WUHU216HW,2013-03-26 11:13:00,
2013-03-26 05:23:00,35.5,23.8,29.81,South,180,2.9,2.9,62,0.00,,,0.00,WUHU216HW,2013-03-26 11:23:00,
2013-03-26 05:33:00,35.5,24.1,29.81,SE,135,1.1,2.5,63,0.00,,,0.00,WUHU216HW,2013-03-26 11:33:00,
2013-03-26 05:43:00,35.3,23.9,29.81,SSE,158,3.1,3.1,63,0.00,,,0.00,WUHU216HW,2013-03-26 11:43:00,
2013-03-26 05:53:00,35.1,24.1,29.81,South,180,2.0,3.8,64,0.00,,,0.00,WUHU216HW,2013-03-26 11:53:00,
2013-03-26 06:03:00,35.1,24.1,29.81,SSW,203,1.1,3.4,64,0.00,,,0.00,WUHU216HW,2013-03-26 12:03:00,
2013-03-26 06:14:00,35.3,24.3,29.81,ESE,113,1.1,1.1,64,0.00,,,0.00,WUHU216HW,2013-03-26 12:14:00,
2013-03-26 06:24:00,35.3,24.3,29.81,SSE,158,0.0,1.8,64,0.00,,,0.00,WUHU216HW,2013-03-26 12:24:00,
2013-03-26 06:34:00,35.3,24.3,29.81,SSE,158,1.3,3.6,64,0.00,,,0.00,WUHU216HW,2013-03-26 12:34:00,
2013-03-26 06:44:00,35.3,24.3,29.81,ESE,113,0.0,1.6,64,0.00,,,0.00,WUHU216HW,2013-03-26 12:44:00,
2013-03-26 06:54:00,35.3,24.3,29.81,West,270,0.2,0.4,64,0.00,,,0.00,WUHU216HW,2013-03-26 12:54:00,
2013-03-26 07:04:00,35.1,24.5,29.81,SE,135,0.9,0.9,65,0.00,,,0.00,WUHU216HW,2013-03-26 13:04:00,
2013-03-26 07:15:00,35.1,24.5,29.81,SE,135,0.2,1.1,65,0.00,,,0.00,WUHU216HW,2013-03-26 13:15:00,
2013-03-26 07:25:00,35.1,24.5,29.82,West,270,0.4,1.3,65,0.00,,,0.00,WUHU216HW,2013-03-26 13:25:00,
2013-03-26 07:35:00,35.1,24.8,29.82,North,0,0.7,0.7,66,0.00,,,0.00,WUHU216HW,2013-03-26 13:35:00,
2013-03-26 07:45:00,35.1,24.8,29.82,NE,45,0.0,0.9,66,0.00,,,0.00,WUHU216HW,2013-03-26 13:45:00,
2013-03-26 07:55:00,35.1,24.8,29.82,NE,45,0.0,0.0,66,0.00,,,0.00,WUHU216HW,2013-03-26 13:55:00,
2013-03-26 08:05:00,35.1,24.8,29.82,NE,45,0.0,0.0,66,0.00,,,0.00,WUHU216HW,2013-03-26 14:05:00,
2013-03-26 08:15:00,35.3,25.4,29.83,West,270,0.9,0.9,67,0.00,,,0.00,WUHU216HW,2013-03-26 14:15:00,
2013-03-26 08:25:00,35.1,25.2,29.83,WNW,293,0.0,0.4,67,0.00,,,0.00,WUHU216HW,2013-03-26 14:25:00,
2013-03-26 08:35:00,35.3,25.4,29.83,West,270,0.7,0.7,67,0.00,,,0.00,WUHU216HW,2013-03-26 14:35:00,
2013-03-26 08:45:00,35.5,25.6,29.83,WNW,293,0.0,1.1,67,0.00,,,0.00,WUHU216HW,2013-03-26 14:45:00,
2013-03-26 08:55:00,35.6,25.7,29.83,WNW,293,0.0,0.0,67,0.00,,,0.00,WUHU216HW,2013-03-26 14:55:00,
2013-03-26 09:05:00,36.2,26.3,29.83,WNW,293,0.0,0.0,67,0.00,,,0.00,WUHU216HW,2013-03-26 15:05:00,
2013-03-26 09:15:00,36.5,26.3,29.83,NNW,338,0.0,0.4,66,0.00,,,0.00,WUHU216HW,2013-03-26 15:15:00,
2013-03-26 09:26:00,37.1,26.4,29.82,North,0,0.0,0.4,65,0.00,,,0.00,WUHU216HW,2013-03-26 15:26:00,
2013-03-26 09:36:00,37.6,26.6,29.82,North,0,0.0,0.7,64,0.00,,,0.00,WUHU216HW,2013-03-26 15:36:00,
2013-03-26 09:46:00,38.0,26.5,29.82,North,0,1.1,1.1,63,0.00,,,0.00,WUHU216HW,2013-03-26 15:46:00,
2013-03-26 09:56:00,38.5,26.9,29.82,NW,315,0.0,1.1,63,0.00,,,0.00,WUHU216HW,2013-03-26 15:56:00,
2013-03-26 10:06:00,38.9,27.3,29.82,WNW,293,0.0,1.8,63,0.00,,,0.00,WUHU216HW,2013-03-26 16:06:00,
2013-03-26 10:16:00,39.8,28.2,29.82,North,0,0.0,0.7,63,0.00,,,0.00,WUHU216HW,2013-03-26 16:16:00,
2013-03-26 10:26:00,40.7,28.3,29.82,SW,225,0.4,1.1,61,0.00,,,0.00,WUHU216HW,2013-03-26 16:26:00,
2013-03-26 10:36:00,41.4,28.6,29.83,West,270,1.3,1.8,60,0.00,,,0.00,WUHU216HW,2013-03-26 16:36:00,
2013-03-26 10:47:00,42.1,28.8,29.82,WNW,293,2.0,3.1,59,0.00,,,0.00,WUHU216HW,2013-03-26 16:47:00,
2013-03-26 10:57:00,43.0,29.2,29.82,SSW,203,3.4,3.6,58,0.00,,,0.00,WUHU216HW,2013-03-26 16:57:00,
2013-03-26 11:07:00,44.1,28.9,29.82,SSW,203,2.7,6.5,55,0.00,,,0.00,WUHU216HW,2013-03-26 17:07:00,
2013-03-26 11:17:00,44.8,29.6,29.81,South,180,1.8,6.3,55,0.00,,,0.00,WUHU216HW,2013-03-26 17:17:00,
2013-03-26 11:27:00,45.5,29.8,29.81,SSW,203,4.7,4.9,54,0.00,,,0.00,WUHU216HW,2013-03-26 17:27:00,
2013-03-26 11:37:00,46.1,30.2,29.81,SW,225,2.9,4.9,54,0.00,,,0.00,WUHU216HW,2013-03-26 17:37:00,
2013-03-26 11:47:00,46.8,30.5,29.81,SSW,203,4.7,7.2,53,0.00,,,0.00,WUHU216HW,2013-03-26 17:47:00,
2013-03-26 11:57:00,47.9,31.5,29.81,South,180,3.6,4.7,53,0.00,,,0.00,WUHU216HW,2013-03-26 17:57:00,
2013-03-26 12:07:00,48.6,31.2,29.80,SW,225,1.8,6.0,51,0.00,,,0.00,WUHU216HW,2013-03-26 18:07:00,
2013-03-26 12:17:00,49.3,31.0,29.80,SSW,203,5.4,8.5,49,0.00,,,0.00,WUHU216HW,2013-03-26 18:17:00,
2013-03-26 12:27:00,49.9,31.5,29.80,SW,225,1.8,6.5,49,0.00,,,0.00,WUHU216HW,2013-03-26 18:27:00,
2013-03-26 12:37:00,50.6,32.1,29.80,SW,225,9.8,9.8,49,0.00,,,0.00,WUHU216HW,2013-03-26 18:37:00,
2013-03-26 12:47:00,51.1,31.5,29.79,SSW,203,4.3,9.8,47,0.00,,,0.00,WUHU216HW,2013-03-26 18:47:00,
2013-03-26 12:57:00,51.5,31.3,29.79,SW,225,7.2,7.2,46,0.00,,,0.00,WUHU216HW,2013-03-26 18:57:00,
2013-03-26 13:07:00,51.7,30.9,29.79,SW,225,1.1,5.4,45,0.00,,,0.00,WUHU216HW,2013-03-26 19:07:00,
2013-03-26 13:17:00,51.8,30.0,29.79,SW,225,4.7,6.5,43,0.00,,,0.00,WUHU216HW,2013-03-26 19:17:00,
2013-03-26 13:27:00,51.5,29.6,29.79,SW,225,1.8,4.0,43,0.00,,,0.00,WUHU216HW,2013-03-26 19:27:00,
2013-03-26 13:38:00,52.4,29.9,29.79,West,270,3.4,3.6,42,0.00,,,0.00,WUHU216HW,2013-03-26 19:38:00,
2013-03-26 13:48:00,52.4,29.9,29.79,WSW,248,1.1,5.4,42,0.00,,,0.00,WUHU216HW,2013-03-26 19:48:00,
2013-03-26 13:58:00,52.9,30.3,29.78,WSW,248,2.7,5.6,42,0.00,,,0.00,WUHU216HW,2013-03-26 19:58:00,
2013-03-26 14:08:00,53.3,30.2,29.78,East,90,2.9,4.3,41,0.00,,,0.00,WUHU216HW,2013-03-26 20:08:00,
2013-03-26 14:18:00,52.9,29.3,29.78,NW,315,1.1,6.9,40,0.00,,,0.00,WUHU216HW,2013-03-26 20:18:00,
2013-03-26 14:28:00,52.9,29.8,29.78,NNE,23,2.5,4.9,41,0.00,,,0.00,WUHU216HW,2013-03-26 20:28:00,
2013-03-26 14:38:00,52.6,29.4,29.77,West,270,2.9,6.0,41,0.00,,,0.00,WUHU216HW,2013-03-26 20:38:00,
2013-03-26 14:48:00,52.9,29.8,29.77,North,0,2.5,6.9,41,0.00,,,0.00,WUHU216HW,2013-03-26 20:48:00,
2013-03-26 14:58:00,52.9,29.8,29.77,North,0,3.4,5.8,41,0.00,,,0.00,WUHU216HW,2013-03-26 20:58:00,
2013-03-26 15:08:00,52.9,28.5,29.77,NNW,338,3.4,6.5,39,0.00,,,0.00,WUHU216HW,2013-03-26 21:08:00,
2013-03-26 15:18:00,53.1,29.4,29.77,ENE,68,0.9,4.3,40,0.00,,,0.00,WUHU216HW,2013-03-26 21:18:00,
2013-03-26 15:28:00,53.6,29.2,29.76,ESE,113,1.8,5.4,39,0.00,,,0.00,WUHU216HW,2013-03-26 21:28:00,
2013-03-26 15:38:00,53.8,29.3,29.76,NNE,23,4.7,4.7,39,0.00,,,0.00,WUHU216HW,2013-03-26 21:38:00,
2013-03-26 15:48:00,53.6,29.2,29.76,North,0,4.0,6.7,39,0.00,,,0.00,WUHU216HW,2013-03-26 21:48:00,
2013-03-26 15:58:00,53.6,29.2,29.76,NNW,338,1.8,4.5,39,0.00,,,0.00,WUHU216HW,2013-03-26 21:58:00,
2013-03-26 16:08:00,54.0,29.5,29.76,West,270,2.0,7.8,39,0.00,,,0.00,WUHU216HW,2013-03-26 22:08:00,
2013-03-26 16:18:00,54.0,28.8,29.75,North,0,2.9,5.4,38,0.00,,,0.00,WUHU216HW,2013-03-26 22:18:00,
2013-03-26 16:28:00,54.0,28.8,29.75,North,0,1.8,2.9,38,0.00,,,0.00,WUHU216HW,2013-03-26 22:28:00,
2013-03-26 16:38:00,54.2,29.0,29.75,North,0,3.4,4.0,38,0.00,,,0.00,WUHU216HW,2013-03-26 22:38:00,
2013-03-26 16:48:00,54.4,29.2,29.75,WNW,293,1.1,4.3,38,0.00,,,0.00,WUHU216HW,2013-03-26 22:48:00,
2013-03-26 16:58:00,54.5,29.4,29.75,NNE,23,1.1,1.8,38,0.00,,,0.00,WUHU216HW,2013-03-26 22:58:00,
2013-03-26 17:08:00,54.4,28.4,29.75,East,90,0.0,5.6,37,0.00,,,0.00,WUHU216HW,2013-03-26 23:08:00,
2013-03-26 17:18:00,53.6,28.5,29.75,North,0,0.7,6.0,38,0.00,,,0.00,WUHU216HW,2013-03-26 23:18:00,
2013-03-26 17:28:00,53.3,28.2,29.75,NW,315,2.5,4.0,38,0.00,,,0.00,WUHU216HW,2013-03-26 23:28:00,
2013-03-26 17:38:00,53.1,28.7,29.75,West,270,1.1,2.5,39,0.00,,,0.00,WUHU216HW,2013-03-26 23:38:00,
2013-03-26 17:49:00,53.1,28.7,29.75,NNW,338,0.7,2.0,39,0.00,,,0.00,WUHU216HW,2013-03-26 23:49:00,
2013-03-26 17:59:00,52.9,28.5,29.75,North,0,0.0,1.6,39,0.00,,,0.00,WUHU216HW,2013-03-26 23:59:00,
2013-03-26 18:09:00,52.9,28.5,29.75,NW,315,0.9,1.1,39,0.00,,,0.00,WUHU216HW,2013-03-27 00:09:00,
2013-03-26 18:19:00,52.6,28.9,29.75,WNW,293,1.6,1.8,40,0.00,,,0.00,WUHU216HW,2013-03-27 00:19:00,
2013-03-26 18:29:00,52.6,28.9,29.75,West,270,0.4,2.5,40,0.00,,,0.00,WUHU216HW,2013-03-27 00:29:00,
2013-03-26 18:39:00,52.7,29.1,29.75,NW,315,2.0,2.5,40,0.00,,,0.00,WUHU216HW,2013-03-27 00:39:00,
2013-03-26 18:50:00,52.9,28.5,29.75,WNW,293,2.7,3.1,39,0.00,,,0.00,WUHU216HW,2013-03-27 00:50:00,
2013-03-26 19:00:00,52.6,28.3,29.75,NW,315,1.1,3.4,39,0.00,,,0.00,WUHU216HW,2013-03-27 01:00:00,
2013-03-26 19:10:00,52.6,28.3,29.75,NW,315,0.4,2.5,39,0.00,,,0.00,WUHU216HW,2013-03-27 01:10:00,
2013-03-26 19:20:00,52.4,28.1,29.75,WNW,293,1.1,1.8,39,0.00,,,0.00,WUHU216HW,2013-03-27 01:20:00,
2013-03-26 19:30:00,52.2,27.9,29.75,WNW,293,0.7,1.1,39,0.00,,,0.00,WUHU216HW,2013-03-27 01:30:00,
2013-03-26 19:40:00,51.8,27.5,29.75,West,270,1.1,1.1,39,0.00,,,0.00,WUHU216HW,2013-03-27 01:40:00,
2013-03-26 19:50:00,51.5,27.9,29.76,WSW,248,3.6,3.6,40,0.00,,,0.00,WUHU216HW,2013-03-27 01:50:00,
2013-03-26 20:00:00,50.4,27.6,29.76,WSW,248,2.5,4.0,41,0.00,,,0.00,WUHU216HW,2013-03-27 02:00:00,
2013-03-26 20:10:00,49.7,26.9,29.76,SW,225,1.8,3.4,41,0.00,,,0.00,WUHU216HW,2013-03-27 02:10:00,
2013-03-26 20:20:00,49.1,26.9,29.76,West,270,2.5,2.9,42,0.00,,,0.00,WUHU216HW,2013-03-27 02:20:00,
2013-03-26 20:30:00,48.6,27.0,29.76,West,270,2.2,2.7,43,0.00,,,0.00,WUHU216HW,2013-03-27 02:30:00,
2013-03-26 20:40:00,48.1,26.5,29.77,West,270,0.0,0.4,43,0.00,,,0.00,WUHU216HW,2013-03-27 02:40:00,
2013-03-26 20:50:00,47.7,26.7,29.77,WSW,248,0.0,0.7,44,0.00,,,0.00,WUHU216HW,2013-03-27 02:50:00,
2013-03-26 21:00:00,47.2,26.2,29.77,ESE,113,2.5,2.7,44,0.00,,,0.00,WUHU216HW,2013-03-27 03:00:00,
2013-03-26 21:10:00,46.6,26.3,29.78,SE,135,1.1,2.5,45,0.00,,,0.00,WUHU216HW,2013-03-27 03:10:00,
2013-03-26 21:20:00,46.3,26.5,29.78,SE,135,2.7,3.1,46,0.00,,,0.00,WUHU216HW,2013-03-27 03:20:00,
2013-03-26 21:30:00,45.7,26.0,29.78,SE,135,2.7,3.1,46,0.00,,,0.00,WUHU216HW,2013-03-27 03:30:00,
2013-03-26 21:40:00,45.4,26.2,29.78,ESE,113,1.1,2.5,47,0.00,,,0.00,WUHU216HW,2013-03-27 03:40:00,
2013-03-26 21:50:00,44.8,25.8,29.79,SE,135,0.9,1.8,47,0.00,,,0.00,WUHU216HW,2013-03-27 03:50:00,
2013-03-26 22:00:00,44.3,25.7,29.79,SE,135,1.3,2.5,48,0.00,,,0.00,WUHU216HW,2013-03-27 04:00:00,
2013-03-26 22:11:00,43.9,26.0,29.79,SE,135,2.2,2.2,49,0.00,,,0.00,WUHU216HW,2013-03-27 04:11:00,
2013-03-26 22:21:00,43.4,25.5,29.79,ESE,113,1.6,3.1,49,0.00,,,0.00,WUHU216HW,2013-03-27 04:21:00,
2013-03-26 22:31:00,43.2,25.9,29.79,ESE,113,0.0,1.1,50,0.00,,,0.00,WUHU216HW,2013-03-27 04:31:00,
2013-03-26 22:41:00,42.8,25.6,29.79,ESE,113,0.0,0.0,50,0.00,,,0.00,WUHU216HW,2013-03-27 04:41:00,
2013-03-26 22:51:00,42.3,25.0,29.79,South,180,0.7,1.1,50,0.00,,,0.00,WUHU216HW,2013-03-27 04:51:00,
2013-03-26 23:01:00,41.8,24.5,29.79,SE,135,1.1,1.8,50,0.00,,,0.00,WUHU216HW,2013-03-27 05:01:00,
2013-03-26 23:11:00,41.2,24.4,29.79,SSE,158,0.4,1.1,51,0.00,,,0.00,WUHU216HW,2013-03-27 05:11:00,
2013-03-26 23:22:00,40.9,24.5,29.79,SE,135,0.0,1.1,52,0.00,,,0.00,WUHU216HW,2013-03-27 05:22:00,
2013-03-26 23:32:00,40.5,24.1,29.79,South,180,0.0,2.0,52,0.00,,,0.00,WUHU216HW,2013-03-27 05:32:00,
2013-03-26 23:42:00,40.0,24.1,29.80,SSE,158,1.8,2.2,53,0.00,,,0.00,WUHU216HW,2013-03-27 05:42:00,
2013-03-26 23:52:00,39.6,24.2,29.80,ESE,113,0.2,1.6,54,0.00,,,0.00,WUHU216HW,2013-03-27 05:52:00,